Lid_Strength_Index
17 15 15 15 15 15 15 14 16 15 15 14 13 13 12 13 12 11 11 11 10 10 11 11 11 11 11 10 11 11 11 10 11 11 12 13 14 14 14 14 14 13 14 14
17 15 15 16 14 14 13 13 14 13 15 14 13 13 13 12 11 12 12 11 10 10 10 10 11 11 11 11 11 11 11 11 13 13 13 14 15 15 15 15 14 14 14 14
17 16 16 18 15 14 14 13 13 15 13 13 13 13 12 12 12 12 12 10 10 9 9 9 10 10 10 10 12 12 12 14 14 14 14 15 15 15 15 15 14 14 15 15
23 20 19 15 14 13 13 12 12 12 14 13 12 12 12 11 11 11 11 10 9 8 9 9 10 10 10 12 13 14 14 14 14 14 14 15 15 16 16 15 15 16 16 15
19 23 17 15 14 16 16 14 13 13 13 13 13 14 12 12 11 10 10 10 9 9 9 9 10 10 11 13 13 13 13 14 14 14 14 14 15 16 15 16 16 16 16 16
23 20 21 14 13 13 12 15 10 12 13 13 13 15 12 11 11 11 11 11 10 10 9 9 10 11 12 13 13 13 13 13 14 14 15 15 15 15 16 15 16 16 16 16
19 17 19 15 14 12 16 15 15 13 13 13 12 10 12 12 11 11 12 11 11 11 10 10 12 12 12 12 13 12 13 13 14 14 14 14 15 16 16 16 16 17 17 17
23 18 19 15 14 13 12 13 12 13 12 12 12 12 12 12 12 12 13 13 13 13 12 12 13 13 13 13 13 14 14 14 14 15 15 15 15 16 16 16 17 18 18 19
15 15 13 14 13 13 13 13 13 12 12 12 12 13 13 13 13 13 14 13 14 15 14 13 15 13 14 14 14 15 15 15 15 15 15 15 16 17 17 17 17 18 18 18
14 15 14 14 14 13 13 14 13 13 13 13 13 13 13 13 13 13 15 16 17 16 16 16 17 15 15 15 15 15 15 15 16 16 16 16 16 16 17 17 18 18 18 18
17 14 14 14 13 13 13 13 13 13 13 13 13 13 13 14 15 16 17 17 17 17 17 17 18 18 18 16 15 15 15 16 16 16 16 17 16 17 17 16 16 17 17 17
17 13 13 13 13 13 13 14 14 14 14 14 14 14 15 16 17 17 17 18 18 18 19 18 19 20 19 18 16 16 17 17 16 16 16 17 18 18 16 16 15 15 15 15
11 11 12 13 13 13 13 14 14 14 14 15 16 15 17 17 18 18 19 19 19 19 19 20 19 19 19 19 17 17 16 17 16 17 17 17 18 18 19 17 15 15 15 15
10 10 11 11 12 13 13 14 15 17 17 17 17 18 19 18 19 18 19 20 20 21 21 21 20 18 19 18 17 17 18 17 16 16 17 17 17 17 17 18 19 18 14 14
13 14 12 13 14 15 15 15 15 17 17 18 19 20 19 19 19 20 21 21 21 23 22 22 22 20 21 20 19 17 16 16 16 16 16 16 17 17 17 18 17 18 20 15
16 16 15 16 17 18 17 17 17 18 19 20 20 21 21 22 23 24 23 24 22 21 23 23 22 21 23 22 20 20 18 18 17 17 17 17 17 17 18 17 17 19 20 18
17 17 18 19 19 20 21 21 21 21 21 23 24 23 24 25 26 24 24 25 27 26 26 27 23 23 25 23 21 20 19 18 17 16 17 16 17 17 18 17 17 18 19 19
21 21 22 21 21 21 23 26 26 27 28 27 26 27 27 26 28 27 26 26 25 23 24 24 25 26 26 26 24 22 21 19 17 17 17 17 17 17 17 17 17 18 19 21
26 26 25 26 26 26 27 28 29 28 29 30 29 29 32 32 33 32 30 29 26 26 24 26 23 25 28 28 25 23 22 22 20 20 19 20 21 21 20 19 19 19 20 21
29 29 28 28 28 29 30 31 31 30 32 33 34 32 31 30 31 30 30 30 29 28 28 28 28 28 28 27 22 26 24 24 21 22 21 21 21 21 21 21 22 22 22 21
32 31 31 31 30 31 33 33 33 33 33 35 36 37 37 34 33 33 32 30 30 29 29 28 28 27 27 26 25 25 25 24 21 20 20 21 21 21 21 21 22 21 23 21
33 33 32 32 33 33 34 35 35 34 34 35 36 36 34 32 34 32 35 31 30 29 29 29 28 28 27 25 27 26 24 23 22 21 20 20 20 20 21 21 21 21 21 21
33 33 32 33 34 35 35 36 35 36 34 35 35 35 35 33 32 33 30 30 29 29 27 29 27 24 23 27 29 28 26 24 22 22 21 20 20 19 19 20 20 20 21 21
35 34 34 35 35 35 34 35 37 37 39 37 37 37 37 34 32 35 33 30 29 28 28 28 25 21 23 29 30 29 27 27 25 25 24 22 22 21 20 20 20 21 21 21
38 38 38 37 37 35 37 34 35 35 35 34 34 33 37 35 33 32 31 30 28 28 28 26 22 22 29 32 31 30 29 27 27 27 25 23 22 22 21 21 21 21 21 21
39 38 38 38 36 36 36 36 35 34 37 35 34 34 33 33 33 32 31 29 30 28 29 28 28 29 30 30 30 29 27 26 26 25 24 24 24 23 22 21 21 21 21 21
37 34 37 35 37 37 38 38 38 34 35 38 35 31 34 32 32 30 29 29 29 29 30 30 28 27 28 28 27 27 26 26 23 24 25 24 23 22 21 21 21 21 20 21